Back to Top

Language: 

My Weather Underground Personal Weather Station Historical Data with Graphs...

Delerius Weather Station Historical Data
Daily Summary for October 1, 2017 Units:  Metric    English   Both
« Previous Day
Next Day »
Daily Weekly Monthly Yearly Custom
  High: Low: Average:
Temperature: 17.3 °C 12.7 °C 15.1 °C
Dew Point: 15.4 °C 12.1 °C 13.6 °C
Humidity: 98 % 80 % 91 %
Wind Speed: 27.4 km/h 1.6 km/h 12.6 km/h
Wind Gust: 48.3 km/h - -
Wind:- - SSW
Pressure: 1010.4 hPa 1002.3 hPa -
Precipitation: 1.02 mm    
Historical Graphs
 
 
Tabular Data for October 1, 2017
Time Temperature Dew Point Pressure Wind Wind Speed Wind Gust Humidity Rainfall Rate (Hourly) solar Conditions
00:04 12.7 °C 12.1 °C 1010.4 hPa ESE 4.8 km/h 9.7 km/h 96 % 0 mm 0 W/m2
00:09 12.8 °C 12.2 °C 1010.4 hPa ESE 3.2 km/h 8 km/h 96 % 0 mm 0 W/m2
00:14 12.8 °C 12.2 °C 1010.4 hPa ESE 4.8 km/h 9.7 km/h 96 % 0 mm 0 W/m2
00:19 12.8 °C 12.2 °C 1010.4 hPa ESE 4.8 km/h 9.7 km/h 96 % 0 mm 0 W/m2
00:24 12.8 °C 12.2 °C 1010.4 hPa ESE 4.8 km/h 11.3 km/h 96 % 0 mm 0 W/m2
00:29 12.8 °C 12.2 °C 1010.4 hPa ESE 4.8 km/h 11.3 km/h 96 % 0 mm 0 W/m2
00:34 12.8 °C 12.3 °C 1010.4 hPa ESE 4.8 km/h 11.3 km/h 97 % 0.25 mm 0 W/m2
00:39 12.8 °C 12.3 °C 1010.4 hPa ESE 4.8 km/h 11.3 km/h 97 % 0.25 mm 0 W/m2
00:44 12.8 °C 12.3 °C 1010 hPa ESE 6.4 km/h 11.3 km/h 97 % 0.25 mm 0 W/m2
00:49 12.8 °C 12.3 °C 1010 hPa ESE 4.8 km/h 11.3 km/h 97 % 0.25 mm 0 W/m2
00:54 12.8 °C 12.3 °C 1010 hPa ESE 6.4 km/h 11.3 km/h 97 % 0.25 mm 0 W/m2
00:59 12.8 °C 12.3 °C 1010 hPa SE 8 km/h 12.9 km/h 97 % 0.25 mm 0 W/m2
01:04 12.8 °C 12.3 °C 1010 hPa SE 8 km/h 12.9 km/h 97 % 0.25 mm 0 W/m2
01:09 12.8 °C 12.3 °C 1010 hPa SE 8 km/h 12.9 km/h 97 % 0.25 mm 0 W/m2
01:14 12.8 °C 12.3 °C 1010 hPa SE 8 km/h 12.9 km/h 97 % 0.25 mm 0 W/m2
01:19 12.8 °C 12.3 °C 1009.7 hPa SE 8 km/h 14.5 km/h 97 % 0.25 mm 0 W/m2
01:24 12.8 °C 12.3 °C 1009.7 hPa SSE 8 km/h 16.1 km/h 97 % 0.25 mm 0 W/m2
01:29 12.8 °C 12.3 °C 1009.7 hPa SE 8 km/h 16.1 km/h 97 % 0.25 mm 0 W/m2
01:34 12.8 °C 12.3 °C 1009.7 hPa SE 8 km/h 14.5 km/h 97 % 0 mm 0 W/m2
01:39 12.8 °C 12.3 °C 1009.7 hPa SE 8 km/h 14.5 km/h 97 % 0.25 mm 0 W/m2
01:44 12.8 °C 12.3 °C 1009.4 hPa SE 6.4 km/h 14.5 km/h 97 % 0.25 mm 0 W/m2
01:49 12.8 °C 12.3 °C 1009.4 hPa SE 8 km/h 12.9 km/h 97 % 0.25 mm 0 W/m2
01:54 12.7 °C 12.2 °C 1009.4 hPa SE 8 km/h 12.9 km/h 97 % 0.25 mm 0 W/m2
01:59 12.8 °C 12.3 °C 1009.4 hPa ESE 8 km/h 14.5 km/h 97 % 0.25 mm 0 W/m2
02:04 12.7 °C 12.2 °C 1009.7 hPa SE 8 km/h 14.5 km/h 97 % 0.25 mm 0 W/m2
02:14 12.8 °C 12.3 °C 1009.7 hPa SE 4.8 km/h 12.9 km/h 97 % 0.25 mm 0 W/m2
02:19 12.8 °C 12.3 °C 1009.4 hPa SE 6.4 km/h 12.9 km/h 97 % 0.25 mm 0 W/m2
02:24 12.8 °C 12.3 °C 1009.4 hPa SE 6.4 km/h 12.9 km/h 97 % 0.25 mm 0 W/m2
02:29 12.7 °C 12.2 °C 1009.4 hPa SE 8 km/h 12.9 km/h 97 % 0.25 mm 0 W/m2
02:34 12.8 °C 12.3 °C 1009 hPa SE 8 km/h 12.9 km/h 97 % 0.25 mm 0 W/m2
02:39 12.8 °C 12.3 °C 1009 hPa SE 8 km/h 14.5 km/h 97 % 0 mm 0 W/m2
02:44 12.7 °C 12.2 °C 1009 hPa SE 8 km/h 14.5 km/h 97 % 0 mm 0 W/m2
02:49 12.7 °C 12.2 °C 1009 hPa SE 8 km/h 11.3 km/h 97 % 0 mm 0 W/m2
02:54 12.8 °C 12.3 °C 1009 hPa SE 8 km/h 12.9 km/h 97 % 0 mm 0 W/m2
03:00 12.8 °C 12.3 °C 1009 hPa SE 6.4 km/h 12.9 km/h 97 % 0 mm 0 W/m2
03:05 12.8 °C 12.3 °C 1009 hPa SE 4.8 km/h 11.3 km/h 97 % 0 mm 0 W/m2
03:10 12.8 °C 12.3 °C 1009 hPa SE 6.4 km/h 11.3 km/h 97 % 0 mm 0 W/m2
03:15 12.8 °C 12.3 °C 1008.7 hPa SE 6.4 km/h 12.9 km/h 97 % 0 mm 0 W/m2
03:20 12.8 °C 12.3 °C 1008.7 hPa SE 8 km/h 16.1 km/h 97 % 0 mm 0 W/m2
03:25 12.8 °C 12.3 °C 1008.4 hPa SE 8 km/h 16.1 km/h 97 % 0 mm 0 W/m2
03:30 12.8 °C 12.3 °C 1008.4 hPa ESE 6.4 km/h 11.3 km/h 97 % 0.25 mm 0 W/m2
03:35 12.8 °C 12.3 °C 1008.4 hPa SE 6.4 km/h 11.3 km/h 97 % 0.25 mm 0 W/m2
03:40 12.8 °C 12.3 °C 1008 hPa SE 6.4 km/h 11.3 km/h 97 % 0.25 mm 0 W/m2
03:45 12.8 °C 12.3 °C 1008 hPa SE 6.4 km/h 11.3 km/h 97 % 0.25 mm 0 W/m2
03:50 12.8 °C 12.3 °C 1008 hPa SE 8 km/h 11.3 km/h 97 % 0.25 mm 0 W/m2
03:55 12.8 °C 12.3 °C 1008 hPa SE 8 km/h 11.3 km/h 97 % 0.25 mm 0 W/m2
04:00 12.8 °C 12.3 °C 1008 hPa SE 6.4 km/h 11.3 km/h 97 % 0.25 mm 0 W/m2
04:05 12.8 °C 12.3 °C 1008.4 hPa SE 6.4 km/h 11.3 km/h 97 % 0.25 mm 0 W/m2
04:10 12.8 °C 12.3 °C 1008.4 hPa ESE 6.4 km/h 9.7 km/h 97 % 0.25 mm 0 W/m2
04:15 12.9 °C 12.4 °C 1008 hPa ESE 4.8 km/h 11.3 km/h 97 % 0.25 mm 0 W/m2
04:20 12.9 °C 12.4 °C 1008 hPa SE 6.4 km/h 11.3 km/h 97 % 0.25 mm 0 W/m2
04:25 12.9 °C 12.4 °C 1008 hPa SE 6.4 km/h 12.9 km/h 97 % 0.25 mm 0 W/m2
04:30 12.9 °C 12.4 °C 1008 hPa SE 6.4 km/h 12.9 km/h 97 % 0 mm 0 W/m2
04:35 12.9 °C 12.4 °C 1007.7 hPa SE 4.8 km/h 9.7 km/h 97 % 0 mm 0 W/m2
04:40 12.9 °C 12.4 °C 1007.7 hPa SSE 4.8 km/h 9.7 km/h 97 % 0 mm 0 W/m2
04:45 12.9 °C 12.4 °C 1007.7 hPa SSE 4.8 km/h 9.7 km/h 97 % 0 mm 0 W/m2
04:50 13 °C 12.6 °C 1008 hPa SSE 4.8 km/h 11.3 km/h 97 % 0 mm 0 W/m2
04:55 13 °C 12.6 °C 1008 hPa SSE 4.8 km/h 12.9 km/h 97 % 0 mm 0 W/m2
05:00 13 °C 12.6 °C 1008 hPa South 3.2 km/h 12.9 km/h 97 % 0 mm 0 W/m2
05:05 13 °C 12.6 °C 1007.7 hPa SSE 1.6 km/h 8 km/h 97 % 0 mm 0 W/m2
05:10 13.1 °C 12.6 °C 1007.7 hPa SSE 1.6 km/h 6.4 km/h 97 % 0 mm 0 W/m2
05:15 13.1 °C 12.6 °C 1007.7 hPa SSE 3.2 km/h 9.7 km/h 97 % 0 mm 0 W/m2
05:20 13.1 °C 12.6 °C 1007.7 hPa SSE 4.8 km/h 11.3 km/h 97 % 0 mm 0 W/m2
05:25 13.1 °C 12.6 °C 1007.7 hPa South 4.8 km/h 16.1 km/h 97 % 0 mm 0 W/m2
05:30 13.1 °C 12.6 °C 1007.7 hPa South 4.8 km/h 16.1 km/h 97 % 0 mm 0 W/m2
05:35 13.2 °C 12.7 °C 1007.7 hPa SSE 4.8 km/h 11.3 km/h 97 % 0 mm 0 W/m2
05:40 13.2 °C 12.7 °C 1007.7 hPa SSE 4.8 km/h 11.3 km/h 97 % 0 mm 0 W/m2
05:45 13.2 °C 12.7 °C 1007.7 hPa SSE 6.4 km/h 11.3 km/h 97 % 0 mm 0 W/m2
05:50 13.2 °C 12.7 °C 1007.7 hPa SSE 8 km/h 11.3 km/h 97 % 0 mm 0 W/m2
05:55 13.2 °C 12.7 °C 1007.7 hPa SSE 4.8 km/h 11.3 km/h 97 % 0 mm 0 W/m2
06:00 13.2 °C 12.7 °C 1007.7 hPa SSE 3.2 km/h 8 km/h 97 % 0 mm 0 W/m2
06:05 13.2 °C 12.7 °C 1007.7 hPa SSE 4.8 km/h 11.3 km/h 97 % 0 mm 0 W/m2
06:10 13.3 °C 12.8 °C 1007.7 hPa South 4.8 km/h 11.3 km/h 97 % 0 mm 0 W/m2
06:15 13.3 °C 12.8 °C 1007.7 hPa South 4.8 km/h 11.3 km/h 97 % 0 mm 0 W/m2
06:19 13.3 °C 12.8 °C 1007.7 hPa South 4.8 km/h 12.9 km/h 97 % 0 mm 0 W/m2
06:24 13.3 °C 12.8 °C 1007.3 hPa South 4.8 km/h 12.9 km/h 97 % 0 mm 0 W/m2
06:29 13.3 °C 13 °C 1007.3 hPa South 4.8 km/h 11.3 km/h 98 % 0 mm 0 W/m2
06:34 13.3 °C 13 °C 1007.3 hPa South 6.4 km/h 14.5 km/h 98 % 0 mm 0 W/m2
06:39 13.3 °C 13 °C 1007.3 hPa South 6.4 km/h 14.5 km/h 98 % 0 mm 0 W/m2
06:44 13.3 °C 13 °C 1007.3 hPa South 8 km/h 16.1 km/h 98 % 0 mm 0 W/m2
06:49 13.3 °C 13 °C 1007.3 hPa SSE 6.4 km/h 16.1 km/h 98 % 0 mm 0 W/m2
06:54 13.3 °C 13 °C 1007 hPa SSE 4.8 km/h 11.3 km/h 98 % 0.25 mm 0 W/m2
06:59 13.4 °C 13.1 °C 1007 hPa South 3.2 km/h 11.3 km/h 98 % 0.25 mm 0 W/m2
07:04 13.4 °C 13.1 °C 1007.3 hPa SSE 3.2 km/h 11.3 km/h 98 % 0.25 mm 0 W/m2
07:09 13.4 °C 13.1 °C 1007.3 hPa South 4.8 km/h 11.3 km/h 98 % 0.25 mm 0 W/m2
07:14 13.4 °C 12.9 °C 1007 hPa SSW 6.4 km/h 11.3 km/h 97 % 0.25 mm 0 W/m2
07:19 13.5 °C 13.1 °C 1007 hPa South 4.8 km/h 9.7 km/h 97 % 0.25 mm 0 W/m2
07:24 13.5 °C 13.1 °C 1006.7 hPa South 4.8 km/h 11.3 km/h 97 % 0.25 mm 5 W/m2
07:29 13.5 °C 13.1 °C 1006.7 hPa SSE 6.4 km/h 12.9 km/h 97 % 0.25 mm 5 W/m2
07:34 13.6 °C 13.1 °C 1007 hPa SSE 8 km/h 20.9 km/h 97 % 0.25 mm 5 W/m2
07:39 13.6 °C 13.1 °C 1007 hPa South 9.7 km/h 20.9 km/h 97 % 0.25 mm 5 W/m2
07:44 13.6 °C 13.1 °C 1007 hPa South 9.7 km/h 17.7 km/h 97 % 0.25 mm 11 W/m2
07:49 13.6 °C 13.3 °C 1007 hPa South 9.7 km/h 16.1 km/h 98 % 0.25 mm 16 W/m2
07:54 13.7 °C 13.4 °C 1007 hPa South 9.7 km/h 16.1 km/h 98 % 0 mm 19 W/m2
07:59 13.7 °C 13.4 °C 1007 hPa SSE 9.7 km/h 16.1 km/h 98 % 0 mm 14 W/m2
08:04 13.7 °C 13.4 °C 1007 hPa SSE 8 km/h 14.5 km/h 98 % 0 mm 18 W/m2
08:09 13.8 °C 13.5 °C 1007 hPa SSE 6.4 km/h 14.5 km/h 98 % 0 mm 23 W/m2
08:14 13.8 °C 13.5 °C 1007 hPa SSE 6.4 km/h 12.9 km/h 98 % 0 mm 23 W/m2
08:19 13.8 °C 13.5 °C 1007 hPa South 6.4 km/h 12.9 km/h 98 % 0 mm 21 W/m2
08:24 13.9 °C 13.6 °C 1007.3 hPa South 8 km/h 12.9 km/h 98 % 0 mm 21 W/m2
08:29 13.9 °C 13.6 °C 1007.3 hPa South 8 km/h 17.7 km/h 98 % 0 mm 23 W/m2
08:34 13.9 °C 13.6 °C 1007 hPa South 9.7 km/h 17.7 km/h 98 % 0 mm 26 W/m2
08:39 14 °C 13.7 °C 1007 hPa SSE 8 km/h 16.1 km/h 98 % 0.25 mm 26 W/m2
08:44 14 °C 13.7 °C 1007 hPa SSE 9.7 km/h 16.1 km/h 98 % 0.25 mm 26 W/m2
08:49 14.1 °C 13.8 °C 1007 hPa SSE 8 km/h 14.5 km/h 98 % 0.25 mm 30 W/m2
08:54 14.1 °C 13.8 °C 1007 hPa SSE 8 km/h 16.1 km/h 98 % 0.25 mm 39 W/m2
08:59 14.1 °C 13.8 °C 1007 hPa SSE 9.7 km/h 16.1 km/h 98 % 0.25 mm 33 W/m2
09:04 14.2 °C 13.9 °C 1006.7 hPa South 9.7 km/h 16.1 km/h 98 % 0.25 mm 42 W/m2
09:09 14.2 °C 13.7 °C 1007 hPa South 8 km/h 16.1 km/h 97 % 0.25 mm 54 W/m2
09:14 14.2 °C 13.7 °C 1007 hPa South 9.7 km/h 19.3 km/h 97 % 0.25 mm 47 W/m2
09:19 14.3 °C 13.8 °C 1007 hPa South 9.7 km/h 19.3 km/h 97 % 0.25 mm 53 W/m2
09:24 14.3 °C 14 °C 1007 hPa South 11.3 km/h 19.3 km/h 98 % 0.25 mm 74 W/m2
09:29 14.4 °C 14.1 °C 1007 hPa South 12.9 km/h 19.3 km/h 98 % 0.25 mm 77 W/m2
09:34 14.4 °C 14.1 °C 1006.7 hPa South 12.9 km/h 22.5 km/h 98 % 0.25 mm 69 W/m2
09:39 14.5 °C 14.1 °C 1006.7 hPa South 11.3 km/h 22.5 km/h 97 % 0 mm 77 W/m2
09:44 14.5 °C 14.1 °C 1006.7 hPa South 11.3 km/h 22.5 km/h 97 % 0 mm 88 W/m2
09:49 14.6 °C 14.1 °C 1006.7 hPa SSE 11.3 km/h 22.5 km/h 97 % 0 mm 107 W/m2
09:54 14.7 °C 14.2 °C 1006.7 hPa SSE 11.3 km/h 20.9 km/h 97 % 0 mm 107 W/m2
09:59 14.7 °C 14.4 °C 1006.3 hPa SSE 11.3 km/h 20.9 km/h 98 % 0 mm 98 W/m2
10:00 14.7 °C 14.4 °C 1006.3 hPa SSE 11.3 km/h 20.9 km/h 98 % 0 mm 98 W/m2
10:05 14.7 °C 14.4 °C 1006.3 hPa SSE 11.3 km/h 20.9 km/h 98 % 0 mm 88 W/m2
10:07 14.7 °C 14.2 °C 1006.3 hPa SSE 11.3 km/h 20.9 km/h 97 % 0 mm 77 W/m2
10:12 14.8 °C 14.3 °C 1006 hPa SSE 9.7 km/h 16.1 km/h 97 % 0 mm 107 W/m2
10:17 14.8 °C 14.3 °C 1006 hPa SSE 9.7 km/h 16.1 km/h 97 % 0 mm 88 W/m2
10:22 14.9 °C 14.4 °C 1006.3 hPa SSE 9.7 km/h 17.7 km/h 97 % 0 mm 107 W/m2
10:27 14.9 °C 14.4 °C 1006.3 hPa South 9.7 km/h 17.7 km/h 97 % 0 mm 111 W/m2
10:32 15 °C 14.7 °C 1006.3 hPa South 9.7 km/h 17.7 km/h 98 % 0 mm 118 W/m2
10:37 15.1 °C 14.6 °C 1006.3 hPa South 9.7 km/h 16.1 km/h 97 % 0 mm 116 W/m2
10:42 15.1 °C 14.6 °C 1006.7 hPa SSW 11.3 km/h 17.7 km/h 97 % 0 mm 76 W/m2
10:47 15.1 °C 14.6 °C 1006.3 hPa SSW 12.9 km/h 22.5 km/h 97 % 0 mm 100 W/m2
10:52 15.1 °C 14.6 °C 1006.3 hPa SSW 12.9 km/h 22.5 km/h 97 % 0 mm 128 W/m2
10:57 15.1 °C 14.6 °C 1006.3 hPa SSW 14.5 km/h 25.7 km/h 97 % 0 mm 104 W/m2
11:02 15.1 °C 14.4 °C 1006.3 hPa SSW 16.1 km/h 25.7 km/h 96 % 0 mm 76 W/m2
11:07 15.1 °C 14.3 °C 1006.3 hPa SSW 16.1 km/h 24.1 km/h 95 % 0 mm 95 W/m2
11:12 15.1 °C 14.2 °C 1006 hPa SSW 14.5 km/h 29 km/h 94 % 0 mm 118 W/m2
11:17 15.2 °C 14.2 °C 1006 hPa SSW 14.5 km/h 29 km/h 94 % 0 mm 141 W/m2
11:22 15.3 °C 14.2 °C 1006 hPa SSW 12.9 km/h 29 km/h 93 % 0 mm 144 W/m2
11:27 15.3 °C 14 °C 1005.6 hPa SSW 14.5 km/h 25.7 km/h 92 % 0 mm 218 W/m2
11:32 15.3 °C 14 °C 1006 hPa SSW 17.7 km/h 25.7 km/h 92 % 0 mm 158 W/m2
11:37 15.4 °C 13.9 °C 1006 hPa SSW 16.1 km/h 30.6 km/h 91 % 0 mm 181 W/m2
11:42 15.6 °C 14.1 °C 1006 hPa SSW 17.7 km/h 32.2 km/h 91 % 0 mm 216 W/m2
11:47 15.7 °C 14.2 °C 1005.6 hPa SSW 17.7 km/h 32.2 km/h 91 % 0 mm 276 W/m2
11:52 15.9 °C 14.3 °C 1005.6 hPa SSW 14.5 km/h 25.7 km/h 90 % 0 mm 482 W/m2
11:57 16.1 °C 14.3 °C 1005.3 hPa SSW 17.7 km/h 37 km/h 89 % 0 mm 475 W/m2
12:02 16.3 °C 14.1 °C 1005.3 hPa SSW 20.9 km/h 38.6 km/h 87 % 0 mm 299 W/m2
12:07 16.4 °C 14.1 °C 1005.3 hPa SSW 19.3 km/h 38.6 km/h 86 % 0 mm 295 W/m2
12:12 16.4 °C 14.1 °C 1005.3 hPa SSW 20.9 km/h 38.6 km/h 86 % 0 mm 334 W/m2
12:17 16.4 °C 14.1 °C 1005 hPa SSW 22.5 km/h 38.6 km/h 86 % 0 mm 396 W/m2
12:22 16.6 °C 14.2 °C 1005 hPa SSW 19.3 km/h 37 km/h 86 % 0 mm 399 W/m2
12:27 16.7 °C 14.2 °C 1004.6 hPa SSW 19.3 km/h 41.8 km/h 85 % 0 mm 624 W/m2
12:32 16.8 °C 14.3 °C 1004.6 hPa SSW 22.5 km/h 45.1 km/h 85 % 0 mm 522 W/m2
12:37 16.9 °C 14.3 °C 1004.6 hPa SSW 27.4 km/h 48.3 km/h 85 % 0 mm 561 W/m2
12:38 16.9 °C 14.6 °C 1004.6 hPa SSW 25.7 km/h 48.3 km/h 86 % 0 mm 554 W/m2
12:43 17.2 °C 14.7 °C 1004.3 hPa SSW 20.9 km/h 46.7 km/h 85 % 0 mm 476 W/m2
12:48 17.3 °C 14.6 °C 1004.3 hPa SSW 22.5 km/h 45.1 km/h 84 % 0 mm 485 W/m2
12:53 17.3 °C 14.8 °C 1004.3 hPa SSW 24.1 km/h 45.1 km/h 85 % 0 mm 348 W/m2
12:58 17.1 °C 14.6 °C 1004.3 hPa SSW 22.5 km/h 41.8 km/h 85 % 0 mm 297 W/m2
13:03 16.8 °C 14.3 °C 1004.3 hPa SSW 22.5 km/h 41.8 km/h 85 % 0 mm 346 W/m2
13:08 16.8 °C 14.3 °C 1004.3 hPa SSW 24.1 km/h 38.6 km/h 85 % 0 mm 411 W/m2
13:13 16.8 °C 14.4 °C 1004.6 hPa SSW 24.1 km/h 38.6 km/h 86 % 0 mm 332 W/m2
13:18 16.8 °C 14.4 °C 1004.6 hPa SSW 24.1 km/h 43.5 km/h 86 % 0 mm 279 W/m2
13:29 16.7 °C 14.3 °C 1004.6 hPa SSW 22.5 km/h 46.7 km/h 86 % 0 mm 214 W/m2
13:34 16.7 °C 14.5 °C 1004.6 hPa SSW 19.3 km/h 37 km/h 87 % 0 mm 193 W/m2
13:39 16.6 °C 14.2 °C 1004.3 hPa SSW 19.3 km/h 41.8 km/h 86 % 0 mm 192 W/m2
13:49 16.6 °C 14.4 °C 1004.6 hPa SSW 16.1 km/h 38.6 km/h 87 % 0 mm 123 W/m2
13:54 16.6 °C 14.4 °C 1004.6 hPa SSW 16.1 km/h 30.6 km/h 87 % 0 mm 98 W/m2
13:59 16.6 °C 14.4 °C 1004.6 hPa SSW 14.5 km/h 32.2 km/h 87 % 0 mm 88 W/m2
14:04 16.6 °C 14.4 °C 1004.3 hPa South 12.9 km/h 32.2 km/h 87 % 0 mm 84 W/m2
14:09 16.6 °C 14.4 °C 1004.3 hPa South 12.9 km/h 24.1 km/h 87 % 0 mm 109 W/m2
14:14 16.6 °C 14.4 °C 1004.3 hPa South 12.9 km/h 24.1 km/h 87 % 0 mm 128 W/m2
14:19 16.7 °C 14.5 °C 1004.3 hPa SSW 14.5 km/h 32.2 km/h 87 % 0 mm 139 W/m2
14:24 16.7 °C 14.5 °C 1003.9 hPa SSW 17.7 km/h 37 km/h 87 % 0 mm 125 W/m2
14:29 16.7 °C 14.5 °C 1003.9 hPa South 17.7 km/h 37 km/h 87 % 0 mm 128 W/m2
14:34 16.8 °C 14.6 °C 1003.9 hPa South 17.7 km/h 35.4 km/h 87 % 0 mm 155 W/m2
14:39 16.8 °C 14.6 °C 1003.9 hPa SSW 20.9 km/h 43.5 km/h 87 % 0 mm 84 W/m2
14:44 16.8 °C 14.6 °C 1003.6 hPa SSW 19.3 km/h 43.5 km/h 87 % 0 mm 121 W/m2
14:49 16.8 °C 14.6 °C 1003.6 hPa South 17.7 km/h 40.2 km/h 87 % 0 mm 81 W/m2
14:54 16.8 °C 14.6 °C 1003.9 hPa SSW 17.7 km/h 32.2 km/h 87 % 0 mm 70 W/m2
14:59 16.8 °C 14.8 °C 1003.9 hPa SSW 17.7 km/h 30.6 km/h 88 % 0 mm 105 W/m2
15:04 16.8 °C 14.8 °C 1003.6 hPa SSW 17.7 km/h 32.2 km/h 88 % 0 mm 104 W/m2
15:09 16.8 °C 14.8 °C 1003.9 hPa SSW 19.3 km/h 33.8 km/h 88 % 0 mm 97 W/m2
15:14 16.9 °C 14.9 °C 1003.6 hPa SSW 19.3 km/h 33.8 km/h 88 % 0 mm 223 W/m2
15:19 17 °C 14.8 °C 1003.9 hPa SSW 17.7 km/h 32.2 km/h 87 % 0 mm 97 W/m2
15:24 17 °C 14.8 °C 1003.6 hPa SSW 17.7 km/h 43.5 km/h 87 % 0 mm 67 W/m2
15:29 17.1 °C 14.9 °C 1003.6 hPa SSW 17.7 km/h 43.5 km/h 87 % 0 mm 118 W/m2
15:34 17.1 °C 14.9 °C 1003.6 hPa SSW 20.9 km/h 40.2 km/h 87 % 0 mm 113 W/m2
15:35 17.1 °C 14.9 °C 1003.6 hPa SSW 19.3 km/h 40.2 km/h 87 % 0 mm 113 W/m2
15:40 17.2 °C 14.8 °C 1003.6 hPa SSW 19.3 km/h 40.2 km/h 86 % 0 mm 116 W/m2
15:45 17.3 °C 14.9 °C 1003.3 hPa SSW 19.3 km/h 37 km/h 86 % 0 mm 95 W/m2
15:50 17.3 °C 14.9 °C 1002.9 hPa SSW 20.9 km/h 40.2 km/h 86 % 0 mm 65 W/m2
15:55 17.3 °C 14.9 °C 1003.3 hPa SSW 16.1 km/h 40.2 km/h 86 % 0 mm 51 W/m2
16:00 17.3 °C 14.9 °C 1003.3 hPa SSW 11.3 km/h 22.5 km/h 86 % 0 mm 60 W/m2
16:05 17.3 °C 14.9 °C 1003.3 hPa SSW 14.5 km/h 30.6 km/h 86 % 0 mm 76 W/m2
16:10 17.3 °C 14.9 °C 1003.3 hPa SSW 17.7 km/h 30.6 km/h 86 % 0 mm 79 W/m2
16:15 17.3 °C 15.1 °C 1003.3 hPa SSW 17.7 km/h 32.2 km/h 87 % 0 mm 63 W/m2
16:20 17.3 °C 15.1 °C 1002.9 hPa SSW 16.1 km/h 32.2 km/h 87 % 0 mm 76 W/m2
16:25 17.3 °C 15.1 °C 1002.9 hPa SSW 14.5 km/h 30.6 km/h 87 % 0 mm 54 W/m2
16:30 17.3 °C 15.1 °C 1002.9 hPa SSW 16.1 km/h 32.2 km/h 87 % 0 mm 51 W/m2
16:35 17.3 °C 15.1 °C 1002.9 hPa SSW 16.1 km/h 33.8 km/h 87 % 0 mm 51 W/m2
16:40 17.3 °C 15.1 °C 1002.9 hPa SSW 16.1 km/h 33.8 km/h 87 % 0 mm 47 W/m2
16:45 17.3 °C 15.1 °C 1002.6 hPa SSW 17.7 km/h 37 km/h 87 % 0 mm 51 W/m2
16:50 17.3 °C 15.1 °C 1002.6 hPa SSW 17.7 km/h 37 km/h 87 % 0 mm 74 W/m2
16:55 17.2 °C 15 °C 1002.6 hPa SSW 16.1 km/h 35.4 km/h 87 % 0 mm 51 W/m2
17:00 17.2 °C 15.2 °C 1002.6 hPa SSW 19.3 km/h 35.4 km/h 88 % 0 mm 47 W/m2
17:05 17.2 °C 15.2 °C 1002.6 hPa SSW 19.3 km/h 32.2 km/h 88 % 0 mm 37 W/m2
17:10 17.2 °C 15.2 °C 1002.6 hPa SSW 16.1 km/h 32.2 km/h 88 % 0 mm 40 W/m2
17:15 17.1 °C 15.1 °C 1002.3 hPa SSW 17.7 km/h 35.4 km/h 88 % 0 mm 32 W/m2
17:20 17.1 °C 15.1 °C 1002.6 hPa SW 17.7 km/h 35.4 km/h 88 % 0 mm 23 W/m2
17:25 17.1 °C 15.1 °C 1002.6 hPa SW 14.5 km/h 30.6 km/h 88 % 0 mm 28 W/m2
17:30 17.1 °C 15.3 °C 1002.6 hPa SW 14.5 km/h 25.7 km/h 89 % 0 mm 33 W/m2
17:35 17 °C 15.3 °C 1002.3 hPa SW 14.5 km/h 25.7 km/h 90 % 0 mm 33 W/m2
17:40 16.9 °C 15.2 °C 1002.3 hPa SW 12.9 km/h 22.5 km/h 90 % 0 mm 21 W/m2
17:45 16.8 °C 15.3 °C 1002.6 hPa SW 14.5 km/h 29 km/h 91 % 0 mm 23 W/m2
17:50 16.8 °C 15.3 °C 1002.6 hPa SW 14.5 km/h 29 km/h 91 % 0 mm 21 W/m2
17:55 16.8 °C 15.3 °C 1002.3 hPa SW 12.9 km/h 25.7 km/h 91 % 0 mm 26 W/m2
18:00 16.7 °C 15.2 °C 1002.6 hPa SW 14.5 km/h 32.2 km/h 91 % 0 mm 25 W/m2
18:05 16.7 °C 15.4 °C 1002.6 hPa SW 16.1 km/h 32.2 km/h 92 % 0 mm 25 W/m2
18:10 16.7 °C 15.4 °C 1002.6 hPa WSW 14.5 km/h 30.6 km/h 92 % 0 mm 21 W/m2
18:15 16.7 °C 15.2 °C 1002.3 hPa WSW 16.1 km/h 30.6 km/h 91 % 0 mm 14 W/m2
18:25 16.9 °C 15.4 °C 1002.3 hPa WSW 16.1 km/h 25.7 km/h 91 % 0 mm 11 W/m2
18:30 16.9 °C 15.2 °C 1002.6 hPa WSW 14.5 km/h 24.1 km/h 90 % 0 mm 7 W/m2
18:35 16.9 °C 15.1 °C 1002.6 hPa WSW 16.1 km/h 29 km/h 89 % 0 mm 0 W/m2
18:40 17 °C 15.2 °C 1002.6 hPa WSW 16.1 km/h 29 km/h 89 % 0 mm 0 W/m2
18:45 17.1 °C 15.1 °C 1002.3 hPa WSW 12.9 km/h 22.5 km/h 88 % 0 mm 0 W/m2
18:50 17.1 °C 14.9 °C 1002.3 hPa WSW 12.9 km/h 22.5 km/h 87 % 0 mm 0 W/m2
18:55 17.2 °C 15 °C 1002.3 hPa WSW 11.3 km/h 22.5 km/h 87 % 0 mm 0 W/m2
18:56 17.2 °C 15 °C 1002.3 hPa WSW 11.3 km/h 22.5 km/h 87 % 0 mm 0 W/m2
19:01 17.2 °C 15 °C 1002.6 hPa WSW 9.7 km/h 17.7 km/h 87 % 0 mm 0 W/m2
19:06 17.2 °C 15 °C 1002.3 hPa WSW 8 km/h 14.5 km/h 87 % 0 mm 0 W/m2
19:11 17.2 °C 14.8 °C 1002.6 hPa WSW 9.7 km/h 20.9 km/h 86 % 0 mm 0 W/m2
19:16 17.2 °C 14.8 °C 1002.3 hPa WSW 11.3 km/h 20.9 km/h 86 % 0 mm 0 W/m2
19:21 17.1 °C 14.7 °C 1002.6 hPa WSW 9.7 km/h 17.7 km/h 86 % 0 mm 0 W/m2
19:26 17.1 °C 14.7 °C 1002.6 hPa WSW 9.7 km/h 17.7 km/h 86 % 0 mm 0 W/m2
19:31 17.1 °C 14.7 °C 1002.6 hPa WSW 8 km/h 17.7 km/h 86 % 0 mm 0 W/m2
19:36 17 °C 14.7 °C 1002.6 hPa SW 8 km/h 16.1 km/h 86 % 0 mm 0 W/m2
19:41 16.9 °C 14.6 °C 1002.6 hPa SW 8 km/h 16.1 km/h 86 % 0 mm 0 W/m2
19:46 16.8 °C 14.4 °C 1002.6 hPa SW 8 km/h 16.1 km/h 86 % 0 mm 0 W/m2
19:51 16.8 °C 14.3 °C 1002.6 hPa SW 8 km/h 16.1 km/h 85 % 0 mm 0 W/m2
19:56 16.7 °C 14.2 °C 1002.6 hPa WSW 6.4 km/h 11.3 km/h 85 % 0 mm 0 W/m2
20:01 16.7 °C 14 °C 1002.3 hPa SW 9.7 km/h 22.5 km/h 84 % 0 mm 0 W/m2
20:06 16.7 °C 14 °C 1002.6 hPa SW 12.9 km/h 24.1 km/h 84 % 0 mm 0 W/m2
20:11 16.7 °C 14 °C 1002.3 hPa SW 12.9 km/h 24.1 km/h 84 % 0 mm 0 W/m2
20:16 16.7 °C 14 °C 1002.6 hPa SW 12.9 km/h 20.9 km/h 84 % 0 mm 0 W/m2
20:21 16.7 °C 13.8 °C 1002.6 hPa SW 12.9 km/h 20.9 km/h 83 % 0 mm 0 W/m2
20:26 16.7 °C 13.8 °C 1002.6 hPa SW 12.9 km/h 24.1 km/h 83 % 0 mm 0 W/m2
20:31 16.6 °C 13.7 °C 1002.6 hPa SW 14.5 km/h 32.2 km/h 83 % 0 mm 0 W/m2
20:36 16.6 °C 13.7 °C 1002.9 hPa SW 14.5 km/h 32.2 km/h 83 % 0 mm 0 W/m2
20:41 16.6 °C 13.5 °C 1002.6 hPa SW 12.9 km/h 33.8 km/h 82 % 0 mm 0 W/m2
20:46 16.6 °C 13.5 °C 1002.9 hPa WSW 14.5 km/h 33.8 km/h 82 % 0 mm 0 W/m2
20:51 16.6 °C 13.3 °C 1002.9 hPa WSW 16.1 km/h 37 km/h 81 % 0 mm 0 W/m2
20:56 16.6 °C 13.3 °C 1002.9 hPa SW 17.7 km/h 37 km/h 81 % 0 mm 0 W/m2
21:01 16.6 °C 13.3 °C 1002.9 hPa WSW 17.7 km/h 32.2 km/h 81 % 0 mm 0 W/m2
21:06 16.5 °C 13.2 °C 1002.9 hPa WSW 16.1 km/h 32.2 km/h 81 % 0 mm 0 W/m2
21:11 16.4 °C 13.1 °C 1002.9 hPa WSW 16.1 km/h 32.2 km/h 81 % 0 mm 0 W/m2
21:16 16.3 °C 12.8 °C 1002.9 hPa WSW 19.3 km/h 40.2 km/h 80 % 0 mm 0 W/m2
21:21 16.3 °C 12.8 °C 1003.3 hPa WSW 24.1 km/h 40.2 km/h 80 % 0 mm 0 W/m2
21:26 16.2 °C 12.7 °C 1002.9 hPa WSW 22.5 km/h 40.2 km/h 80 % 0 mm 0 W/m2
21:31 16.1 °C 12.7 °C 1002.6 hPa WSW 20.9 km/h 37 km/h 80 % 0 mm 0 W/m2
21:36 16 °C 12.6 °C 1002.6 hPa WSW 19.3 km/h 37 km/h 80 % 0 mm 0 W/m2
21:41 15.9 °C 12.7 °C 1002.6 hPa WSW 16.1 km/h 33.8 km/h 81 % 0 mm 0 W/m2
21:46 15.8 °C 12.6 °C 1002.6 hPa WSW 19.3 km/h 38.6 km/h 81 % 0 mm 0 W/m2
21:51 15.8 °C 12.6 °C 1002.6 hPa WSW 20.9 km/h 40.2 km/h 81 % 0 mm 0 W/m2
21:56 15.8 °C 12.6 °C 1002.6 hPa WSW 20.9 km/h 41.8 km/h 81 % 0 mm 0 W/m2
22:01 15.7 °C 12.6 °C 1002.6 hPa WSW 22.5 km/h 41.8 km/h 82 % 0 mm 0 W/m2
22:06 15.7 °C 12.6 °C 1002.6 hPa WSW 24.1 km/h 45.1 km/h 82 % 0 mm 0 W/m2
22:11 15.7 °C 12.6 °C 1002.6 hPa WSW 24.1 km/h 45.1 km/h 82 % 0 mm 0 W/m2
22:17 15.7 °C 12.8 °C 1002.6 hPa WSW 22.5 km/h 35.4 km/h 83 % 0 mm 0 W/m2
22:22 15.6 °C 12.7 °C 1002.6 hPa WSW 19.3 km/h 35.4 km/h 83 % 0 mm 0 W/m2
22:26 15.6 °C 12.7 °C 1002.9 hPa WSW 17.7 km/h 30.6 km/h 83 % 0 mm 0 W/m2
22:31 15.7 °C 12.8 °C 1002.9 hPa WSW 16.1 km/h 30.6 km/h 83 % 0 mm 0 W/m2
22:36 15.7 °C 12.8 °C 1002.6 hPa WSW 16.1 km/h 32.2 km/h 83 % 0 mm 0 W/m2
22:42 15.7 °C 12.8 °C 1002.6 hPa WSW 17.7 km/h 32.2 km/h 83 % 0 mm 0 W/m2
22:47 15.7 °C 12.8 °C 1002.6 hPa WSW 17.7 km/h 37 km/h 83 % 0 mm 0 W/m2
22:52 15.8 °C 12.7 °C 1002.9 hPa WSW 19.3 km/h 37 km/h 82 % 0 mm 0 W/m2
22:57 15.8 °C 12.7 °C 1002.9 hPa WSW 20.9 km/h 38.6 km/h 82 % 0 mm 0 W/m2
23:02 15.8 °C 12.6 °C 1002.9 hPa WSW 19.3 km/h 38.6 km/h 81 % 0 mm 0 W/m2
23:07 15.8 °C 12.6 °C 1002.9 hPa WSW 20.9 km/h 37 km/h 81 % 0 mm 0 W/m2
23:12 15.8 °C 12.6 °C 1002.9 hPa WSW 22.5 km/h 37 km/h 81 % 0 mm 0 W/m2
23:17 15.8 °C 12.6 °C 1003.3 hPa WSW 20.9 km/h 33.8 km/h 81 % 0 mm 0 W/m2
23:22 15.8 °C 12.7 °C 1003.3 hPa WSW 22.5 km/h 40.2 km/h 82 % 0 mm 0 W/m2
23:27 15.7 °C 12.6 °C 1002.9 hPa WSW 20.9 km/h 40.2 km/h 82 % 0 mm 0 W/m2
23:32 15.7 °C 12.6 °C 1003.3 hPa WSW 20.9 km/h 40.2 km/h 82 % 0 mm 0 W/m2
23:37 15.6 °C 12.6 °C 1003.3 hPa WSW 20.9 km/h 40.2 km/h 82 % 0 mm 0 W/m2
23:42 15.5 °C 12.4 °C 1002.9 hPa WSW 22.5 km/h 40.2 km/h 82 % 0 mm 0 W/m2
23:47 15.4 °C 12.3 °C 1003.3 hPa WSW 20.9 km/h 40.2 km/h 82 % 0 mm 0 W/m2
23:52 15.4 °C 12.3 °C 1003.3 hPa WSW 20.9 km/h 40.2 km/h 82 % 0 mm 0 W/m2
23:57 15.3 °C 12.2 °C 1003.3 hPa West 20.9 km/h 37 km/h 82 % 0 mm 0 W/m2
Delerius-Weather
Compliments of Weather Underground - 2.25 mb

Data updates at regular intervals.